CW2001 Weather Reports


Display with metric or nautical units.
time (UTC)temp
F
wind
direction
speed
MPH
gust
MPH
rain 1hr
in
rain 24hr
in
rain mn
in
humidity
%
barometer
mb
20180222144112 25 75 6.0 12.0 0.00 0.00 0.00 88 1033.7
20180222143612 24 76 5.0 12.0 0.00 0.00 0.00 88 1033.8
20180222143112 24 61 6.0 12.0 0.00 0.00 0.00 89 1034.0
20180222142612 24 64 2.0 9.0 0.00 0.00 0.00 89 1034.3
20180222142112 24 82 4.0 8.0 0.00 0.00 0.00 89 1034.4
20180222141612 24 92 7.0 15.0 0.00 0.00 0.00 89 1034.4
20180222141112 24 96 6.0 14.0 0.00 0.00 0.00 89 1034.2
20180222140611 24 95 9.0 20.0 0.00 0.00 0.00 88 1034.1
20180222140112 24 82 3.0 12.0 0.00 0.00 0.00 88 1034.1
20180222135612 24 83 5.0 12.0 0.00 0.00 0.00 88 1034.1
20180222135114 24 83 6.0 12.0 0.00 0.00 0.00 88 1034.2
20180222134612 24 81 6.0 12.0 0.00 0.00 0.00 88 1034.6
20180222134112 24 81 0.0 6.0 0.00 0.00 0.00 89 1034.7
20180222133612 24 71 1.0 7.0 0.00 0.00 0.00 89 1034.8
20180222133112 24 91 6.0 12.0 0.00 0.00 0.00 89 1034.8
20180222132612 23 94 2.0 8.0 0.00 0.00 0.00 89 1034.9
20180222132112 23 83 2.0 6.0 0.00 0.00 0.00 89 1034.8
20180222131612 23 77 0.0 3.0 0.00 0.00 0.00 90 1034.8
20180222131112 23 77 1.0 7.0 0.00 0.00 0.00 90 1034.9
20180222130612 23 86 3.0 12.0 0.00 0.00 0.00 89 1034.9
20180222130113 23 69 5.0 12.0 0.00 0.00 0.00 89 1034.7
20180222125612 23 77 3.0 12.0 0.00 0.00 0.00 89 1034.7
20180222125112 23 87 6.0 13.0 0.00 0.00 0.00 88 1034.8
20180222124612 24 87 7.0 12.0 0.00 0.00 0.00 87 1035.0
20180222124113 24 76 3.0 12.0 0.00 0.00 0.00 86 1034.9
20180222123612 24 85 6.0 12.0 0.00 0.00 0.00 85 1034.8
20180222123111 24 85 5.0 9.0 0.00 0.00 0.00 84 1035.2
20180222122611 24 84 3.0 7.0 0.00 0.00 0.00 83 1035.4
20180222122111 24 94 5.0 9.0 0.00 0.00 0.00 82 1035.3
20180222121611 24 94 6.0 12.0 0.00 0.00 0.00 82 1035.5
20180222121111 24 92 5.0 8.0 0.00 0.00 0.00 82 1035.5
20180222120611 24 85 0.0 7.0 0.00 0.00 0.00 82 1035.5
20180222120112 24 88 0.0 3.0 0.00 0.00 0.00 82 1035.4
20180222115612 24 87 2.0 7.0 0.00 0.00 0.00 82 1035.4
20180222115112 24 90 0.0 0.0 0.00 0.00 0.00 82 1035.7
20180222114612 24 90 0.0 0.0 0.00 0.00 0.00 82 1035.7
20180222114112 24 90 0.0 0.0 0.00 0.00 0.00 81 1035.6
20180222113612 24 90 0.0 0.0 0.00 0.00 0.00 81 1035.8
20180222113111 24 92 0.0 2.0 0.00 0.00 0.00 81 1035.8
20180222112111 24 84 0.0 3.0 0.00 0.00 0.00 81 1035.7
20180222111612 24 80 0.0 0.0 0.00 0.00 0.00 81 1035.7
20180222111111 24 55 0.0 0.0 0.00 0.00 0.00 81 1035.7
20180222110611 24 82 0.0 6.0 0.00 0.00 0.00 81 1035.5
20180222110112 24 85 5.0 8.0 0.00 0.00 0.00 81 1035.1
20180222105611 24 76 5.0 12.0 0.00 0.00 0.00 81 1035.0
20180222105112 24 88 5.0 9.0 0.00 0.00 0.00 81 1034.8
20180222104612 24 67 5.0 10.0 0.00 0.00 0.00 81 1034.4
20180222104112 24 86 5.0 12.0 0.00 0.00 0.00 81 1034.5
20180222103612 24 52 3.0 6.0 0.00 0.00 0.00 81 1034.6
20180222103112 24 71 3.0 12.0 0.00 0.00 0.00 81 1034.9
20180222102613 24 76 4.0 8.0 0.00 0.00 0.00 81 1034.9
20180222102112 24 84 5.0 13.0 0.00 0.00 0.00 81 1035.0
20180222101611 24 73 6.0 12.0 0.00 0.00 0.00 81 1035.1
20180222101111 24 78 5.0 7.0 0.00 0.00 0.00 81 1035.0
20180222100612 24 76 5.0 10.0 0.00 0.00 0.00 81 1035.0
20180222100112 24 62 5.0 8.0 0.00 0.00 0.00 81 1035.4
20180222095614 24 78 5.0 12.0 0.00 0.00 0.00 81 1035.5
20180222095112 24 67 3.0 9.0 0.00 0.00 0.00 81 1035.6
20180222094612 24 76 3.0 8.0 0.00 0.00 0.00 81 1035.7
20180222094112 24 42 3.0 7.0 0.00 0.00 0.00 80 1035.6
20180222093612 24 73 5.0 7.0 0.00 0.00 0.00 80 1035.8
20180222093115 24 81 4.0 7.0 0.00 0.00 0.00 80 1036.0
20180222092611 24 58 1.0 7.0 0.00 0.00 0.00 80 1036.0
20180222092112 24 77 2.0 5.0 0.00 0.00 0.00 80 1036.3
20180222091612 24 82 3.0 5.0 0.00 0.00 0.00 80 1036.1
20180222091112 24 84 2.0 5.0 0.00 0.00 0.00 81 1036.3
20180222090612 24 87 2.0 5.0 0.00 0.00 0.00 80 1036.4
20180222090111 24 88 2.0 5.0 0.00 0.00 0.00 80 1036.6
20180222085612 24 88 3.0 5.0 0.00 0.00 0.00 80 1036.6
20180222085112 24 89 3.0 7.0 0.00 0.00 0.00 80 1036.9
20180222084612 24 89 3.0 7.0 0.00 0.00 0.00 80 1037.2
20180222084112 24 91 4.0 7.0 0.00 0.00 0.00 80 1037.3
20180222083612 24 90 4.0 7.0 0.00 0.00 0.00 80 1037.2
20180222083111 24 94 4.0 7.0 0.00 0.00 0.00 80 1037.4
20180222082612 24 101 2.0 5.0 0.00 0.00 0.00 81 1037.3
20180222082112 24 101 2.0 6.0 0.00 0.00 0.00 82 1037.1
20180222081612 24 101 2.0 6.0 0.00 0.00 0.00 81 1036.9
20180222081113 24 110 4.0 8.0 0.00 0.00 0.00 81 1037.2
20180222080612 24 87 6.0 9.0 0.00 0.00 0.00 81 1036.7
20180222075611 24 82 4.0 7.0 0.00 0.00 0.00 81 1036.4
20180222075111 24 86 6.0 10.0 0.00 0.00 0.00 81 1036.6
20180222074611 24 73 5.0 12.0 0.00 0.00 0.00 81 1036.5
20180222074111 24 92 5.0 8.0 0.00 0.00 0.00 81 1036.7
20180222073612 24 80 5.0 12.0 0.00 0.00 0.00 81 1036.7
20180222073111 24 49 4.0 12.0 0.00 0.00 0.00 81 1036.6
20180222072611 24 69 1.0 7.0 0.00 0.00 0.00 81 1036.5
20180222072112 24 74 3.0 7.0 0.00 0.00 0.00 82 1036.7
20180222071612 23 69 4.0 8.0 0.00 0.00 0.00 81 1036.7
20180222071112 23 89 5.0 12.0 0.00 0.00 0.00 82 1036.9
20180222070612 23 55 5.0 12.0 0.00 0.00 0.00 82 1036.8
20180222070111 23 79 5.0 8.0 0.00 0.00 0.00 82 1037.0
20180222065611 23 85 3.0 6.0 0.00 0.00 0.00 82 1037.2
20180222065111 23 79 5.0 10.0 0.00 0.00 0.00 82 1037.0
20180222064611 23 69 5.0 9.0 0.00 0.00 0.00 82 1037.1
20180222064111 23 92 4.0 8.0 0.00 0.00 0.00 82 1037.2
20180222063611 23 78 4.0 10.0 0.00 0.00 0.00 82 1037.2
20180222063112 23 82 6.0 10.0 0.00 0.00 0.00 82 1037.3
20180222062611 23 75 5.0 8.0 0.00 0.00 0.00 82 1037.0
20180222062111 23 79 6.0 14.0 0.00 0.00 0.00 81 1036.9
20180222061611 23 86 3.0 12.0 0.00 0.00 0.00 81 1036.7
20180222061111 23 64 2.0 6.0 0.00 0.00 0.00 82 1036.5
20180222060612 23 72 4.0 12.0 0.00 0.00 0.00 82 1036.7
20180222060112 23 71 5.0 10.0 0.00 0.00 0.00 81 1036.8
20180222055611 23 70 6.0 10.0 0.00 0.00 0.00 81 1036.9
20180222055112 23 70 5.0 12.0 0.00 0.00 0.00 81 1036.9
20180222054612 23 68 6.0 12.0 0.00 0.00 0.00 80 1037.1
20180222054112 23 65 6.0 12.0 0.00 0.00 0.00 81 1037.1
20180222053611 23 74 5.0 8.0 0.00 0.00 0.00 81 1037.2
20180222053111 23 75 3.0 10.0 0.00 0.00 0.00 81 1037.3
20180222052611 23 58 2.0 6.0 0.00 0.00 0.00 82 1037.3
20180222052111 23 56 3.0 9.0 0.00 0.00 0.00 81 1037.4
20180222051611 23 78 6.0 12.0 0.00 0.00 0.00 82 1037.6
20180222051111 23 69 6.0 12.0 0.00 0.00 0.00 82 1037.7
20180222050611 23 73 2.0 7.0 0.00 0.00 0.00 81 1037.7
20180222050112 23 56 3.0 10.0 0.00 0.00 0.00 81 1037.9
20180222045611 23 66 3.0 6.0 0.00 0.00 0.00 82 1037.9
20180222045111 23 61 2.0 6.0 0.00 0.00 0.00 82 1037.9
20180222044611 23 82 1.0 10.0 0.00 0.00 0.00 81 1038.0
20180222044111 23 77 5.0 12.0 0.00 0.00 0.00 81 1038.1
20180222043611 23 87 3.0 7.0 0.00 0.00 0.00 89 1038.0
20180222043111 23 70 1.0 3.0 0.00 0.00 0.00 88 1038.0
20180222042614 23 67 3.0 8.0 0.00 0.00 0.00 81 1038.2
20180222042111 23 80 5.0 12.0 0.00 0.00 0.00 81 1038.1
20180222041611 23 85 5.0 12.0 0.00 0.00 0.00 81 1038.2
20180222041111 23 78 3.0 8.0 0.00 0.00 0.00 81 1038.4
20180222040612 23 62 3.0 7.0 0.00 0.00 0.00 81 1038.5
20180222040111 23 50 0.0 3.0 0.00 0.00 0.00 82 1038.5
20180222035611 23 67 1.0 3.0 0.00 0.00 0.00 80 1038.8
20180222035111 23 74 2.0 6.0 0.00 0.00 0.00 80 1038.7
20180222034611 23 52 3.0 8.0 0.00 0.00 0.00 80 1038.6
20180222034111 23 69 1.0 7.0 0.00 0.00 0.00 82 1038.7
20180222033611 23 80 1.0 5.0 0.00 0.00 0.00 82 1038.6
20180222033110 23 79 2.0 5.0 0.00 0.00 0.00 82 1038.7
20180222032611 23 61 3.0 9.0 0.00 0.00 0.00 81 1038.8
20180222032111 23 71 6.0 12.0 0.00 0.00 0.00 80 1038.8
20180222031611 23 81 5.0 7.0 0.00 0.00 0.00 81 1039.1
20180222031111 23 89 3.0 9.0 0.00 0.00 0.00 81 1039.1
20180222030611 23 53 3.0 7.0 0.00 0.00 0.00 81 1039.1
20180222030111 23 84 2.0 7.0 0.00 0.00 0.00 81 1039.1
20180222025611 23 59 5.0 9.0 0.00 0.00 0.00 80 1039.1
20180222025111 23 76 5.0 12.0 0.00 0.00 0.00 80 1039.1
20180222024611 23 76 4.0 7.0 0.00 0.00 0.00 80 1039.2
20180222024111 23 76 3.0 12.0 0.00 0.00 0.00 80 1039.0
20180222023611 23 73 2.0 6.0 0.00 0.00 0.00 80 1038.9
20180222023113 23 77 2.0 6.0 0.00 0.00 0.00 80 1038.9
20180222022611 23 72 2.0 5.0 0.00 0.00 0.00 80 1038.8
20180222022111 23 79 5.0 12.0 0.00 0.00 0.00 79 1038.7
20180222021611 23 70 5.0 10.0 0.00 0.00 0.00 80 1038.8
20180222021110 23 67 3.0 6.0 0.00 0.00 0.00 81 1038.9
20180222020610 23 57 2.0 7.0 0.00 0.00 0.00 81 1038.9
20180222020111 23 82 2.0 5.0 0.00 0.00 0.00 82 1039.0
20180222015611 23 63 1.0 3.0 0.00 0.00 0.00 82 1039.0
20180222015111 23 68 4.0 9.0 0.00 0.00 0.00 81 1039.0
20180222014611 23 50 1.0 5.0 0.00 0.00 0.00 81 1039.0
20180222014111 23 64 2.0 6.0 0.00 0.00 0.00 81 1039.0
20180222013611 23 77 2.0 6.0 0.00 0.00 0.00 81 1039.1
20180222013111 23 61 1.0 5.0 0.00 0.00 0.00 81 1039.1
20180222012611 23 75 0.0 5.0 0.00 0.00 0.00 81 1039.2
20180222012111 23 66 3.0 6.0 0.00 0.00 0.00 81 1039.3
20180222011611 23 67 1.0 3.0 0.00 0.00 0.00 81 1039.3
20180222011111 23 66 0.0 5.0 0.00 0.00 0.00 81 1039.3
20180222010611 23 83 2.0 5.0 0.00 0.00 0.00 82 1039.4
20180222010111 23 49 1.0 5.0 0.00 0.00 0.00 82 1039.4
20180222005611 23 51 1.0 6.0 0.00 0.00 0.00 82 1039.4
20180222005111 23 52 0.0 3.0 0.00 0.00 0.00 82 1039.4
20180222004611 23 72 1.0 5.0 0.00 0.00 0.00 82 1039.5
20180222004111 23 65 0.0 3.0 0.00 0.00 0.00 81 1039.4
20180222003611 23 65 2.0 6.0 0.00 0.00 0.00 82 1039.4
20180222003111 23 53 1.0 7.0 0.00 0.00 0.00 82 1039.3
20180222002611 23 49 2.0 5.0 0.00 0.00 0.00 82 1039.4
20180222002111 23 42 0.0 0.0 0.00 0.00 0.00 82 1039.6
20180222001614 23 48 1.0 3.0 0.00 0.00 0.00 81 1039.5
20180222001111 23 80 0.0 5.0 0.00 0.00 0.00 81 1039.7
20180222000611 23 59 0.0 3.0 0.00 0.00 0.00 80 1039.8
20180222000110 23 76 0.0 3.0 0.00 0.00 0.00 80 1039.9
20180221235610 23 75 0.0 3.0 0.00 0.00 0.00 81 1040.0
20180221235110 23 55 0.0 0.0 0.00 0.00 0.00 80 1039.9
20180221234611 23 55 1.0 6.0 0.00 0.00 0.00 79 1039.8
20180221234111 23 66 2.0 5.0 0.00 0.00 0.00 79 1039.8
20180221233611 23 51 0.0 5.0 0.00 0.00 0.00 78 1039.7
20180221233110 23 59 0.0 0.0 0.00 0.00 0.00 77 1039.8
20180221232611 23 78 1.0 6.0 0.00 0.00 0.00 76 1039.8
20180221232111 23 71 1.0 7.0 0.00 0.00 0.00 76 1039.6
20180221231611 23 81 2.0 8.0 0.00 0.00 0.00 76 1039.7
20180221231111 23 79 0.0 5.0 0.00 0.00 0.00 76 1039.7
20180221230611 23 69 1.0 5.0 0.00 0.00 0.00 75 1039.7
20180221230110 23 78 0.0 5.0 0.00 0.00 0.00 75 1039.6
20180221225611 23 51 2.0 3.0 0.00 0.00 0.00 75 1039.5
20180221225111 23 77 0.0 3.0 0.00 0.00 0.00 75 1039.5
20180221224611 23 84 0.0 3.0 0.00 0.00 0.00 75 1039.5
20180221224112 23 85 1.0 5.0 0.00 0.00 0.00 74 1039.6
20180221223611 24 64 0.0 5.0 0.00 0.00 0.00 73 1039.5
20180221223111 24 23 2.0 6.0 0.00 0.00 0.00 73 1039.4
20180221222611 24 46 2.0 9.0 0.00 0.00 0.00 73 1039.4
20180221222111 24 26 1.0 6.0 0.00 0.00 0.00 73 1039.4
20180221221610 24 28 1.0 7.0 0.00 0.00 0.00 73 1039.2
20180221221111 24 24 3.0 8.0 0.00 0.00 0.00 72 1039.3
20180221220611 24 35 0.0 2.0 0.00 0.00 0.00 72 1039.3
20180221220111 24 41 2.0 8.0 0.00 0.00 0.00 71 1039.4
20180221215611 24 67 1.0 5.0 0.00 0.00 0.00 70 1039.4
20180221215110 24 23 1.0 9.0 0.00 0.00 0.00 69 1039.4
20180221214611 24 356 2.0 8.0 0.00 0.00 0.00 71 1039.4
20180221214110 24 23 2.0 6.0 0.00 0.00 0.00 72 1039.5
20180221213610 24 9 2.0 6.0 0.00 0.00 0.00 73 1039.3
20180221213111 24 24 5.0 9.0 0.00 0.00 0.00 72 1039.2
20180221212610 24 23 3.0 10.0 0.00 0.00 0.00 72 1039.1
20180221212110 24 21 4.0 7.0 0.00 0.00 0.00 73 1039.3
20180221211611 23 64 1.0 7.0 0.00 0.00 0.00 71 1039.4
20180221211111 23 357 2.0 8.0 0.00 0.00 0.00 72 1039.3
20180221210610 24 5 4.0 9.0 0.00 0.00 0.00 72 1039.2
20180221210111 23 12 2.0 8.0 0.00 0.00 0.00 72 1039.2
20180221205611 23 23 1.0 12.0 0.00 0.00 0.00 74 1039.2
20180221205110 23 46 3.0 12.0 0.00 0.00 0.00 73 1039.3
20180221204610 23 2 4.0 9.0 0.00 0.00 0.00 72 1039.4
20180221204111 23 17 4.0 9.0 0.00 0.00 0.00 73 1039.4
20180221203611 23 23 3.0 8.0 0.00 0.00 0.00 73 1039.4
20180221203110 23 2 3.0 10.0 0.00 0.00 0.00 74 1039.4
20180221202610 23 353 3.0 9.0 0.00 0.00 0.00 73 1039.5
20180221202110 23 1 2.0 12.0 0.00 0.00 0.00 73 1039.6
20180221201611 23 358 3.0 9.0 0.00 0.00 0.00 73 1039.7
20180221201111 23 11 2.0 7.0 0.00 0.00 0.00 73 1039.7
20180221200611 23 1 3.0 9.0 0.00 0.00 0.00 71 1039.8
20180221200110 23 346 5.0 8.0 0.00 0.00 0.00 72 1040.0
20180221195611 23 7 2.0 5.0 0.00 0.00 0.00 72 1040.2
20180221195111 23 9 0.0 3.0 0.00 0.00 0.00 71 1040.1
20180221194611 23 41 3.0 8.0 0.00 0.00 0.00 73 1040.2
20180221194111 23 6 2.0 6.0 0.00 0.00 0.00 72 1040.3
20180221193610 23 5 2.0 6.0 0.00 0.00 0.00 73 1040.5
20180221193111 23 11 3.0 7.0 0.00 0.00 0.00 74 1040.6
20180221192611 23 59 0.0 8.0 0.00 0.00 0.00 74 1040.8
20180221192111 22 335 2.0 6.0 0.00 0.00 0.00 73 1040.8
20180221191610 22 11 1.0 5.0 0.00 0.00 0.00 77 1040.8
20180221191110 22 13 0.0 2.0 0.00 0.00 0.00 73 1040.8
20180221190610 22 3 3.0 7.0 0.00 0.00 0.00 75 1040.7
20180221190110 22 9 1.0 7.0 0.00 0.00 0.00 74 1040.8
20180221185610 22 344 3.0 8.0 0.00 0.00 0.00 76 1040.7
20180221185111 22 355 3.0 8.0 0.00 0.00 0.00 76 1040.9
20180221184611 21 30 1.0 6.0 0.00 0.00 0.00 76 1040.9
20180221184110 21 350 1.0 7.0 0.00 0.00 0.00 74 1041.1
20180221183610 21 356 1.0 6.0 0.00 0.00 0.00 75 1041.1
20180221183111 21 8 0.0 6.0 0.00 0.00 0.00 76 1041.2
20180221182610 21 352 4.0 7.0 0.00 0.00 0.00 76 1041.2
20180221182110 21 357 3.0 8.0 0.00 0.00 0.00 77 1041.2
20180221181610 20 345 3.0 6.0 0.00 0.00 0.00 76 1041.2
20180221181111 20 11 0.0 3.0 0.00 0.00 0.00 76 1041.1
20180221180611 20 0 2.0 6.0 0.00 0.00 0.00 78 1041.1
20180221180110 20 0 2.0 7.0 0.00 0.00 0.00 78 1041.2
20180221175610 20 7 0.0 7.0 0.00 0.00 0.00 77 1041.1
20180221175110 19 351 2.0 3.0 0.00 0.00 0.00 77 1041.1
20180221174610 19 33 0.0 0.0 0.00 0.00 0.00 76 1041.1
20180221174110 19 3 1.0 7.0 0.00 0.00 0.00 77 1041.2
20180221173610 19 0 3.0 7.0 0.00 0.00 0.00 77 1041.2
20180221173110 19 349 2.0 6.0 0.00 0.00 0.00 78 1041.2
20180221172610 19 24 0.0 6.0 0.00 0.00 0.00 77 1041.3
20180221172111 19 8 2.0 7.0 0.00 0.00 0.00 78 1041.1
20180221171611 19 5 4.0 8.0 0.00 0.00 0.00 78 1040.9
20180221171110 19 9 2.0 6.0 0.00 0.00 0.00 78 1041.1
20180221170610 19 22 3.0 5.0 0.00 0.00 0.00 77 1041.0
20180221170110 19 15 1.0 5.0 0.00 0.00 0.00 78 1040.9
20180221165611 19 350 2.0 7.0 0.00 0.00 0.00 78 1040.9
20180221165110 18 4 0.0 5.0 0.00 0.00 0.00 79 1040.9
20180221164610 18 359 1.0 5.0 0.00 0.00 0.00 78 1041.1
20180221164110 18 6 1.0 3.0 0.00 0.00 0.00 80 1041.0
20180221163610 18 15 0.0 3.0 0.00 0.00 0.00 78 1041.2
20180221163110 18 28 1.0 3.0 0.00 0.00 0.00 79 1041.3
20180221162610 17 355 1.0 7.0 0.00 0.00 0.00 79 1041.3
20180221162111 17 5 3.0 6.0 0.00 0.00 0.00 79 1041.2
20180221161610 17 19 1.0 5.0 0.00 0.00 0.00 78 1041.2
20180221161111 17 61 0.0 0.0 0.00 0.00 0.00 79 1041.2
20180221160610 16 38 0.0 0.0 0.00 0.00 0.00 79 1041.3
20180221160110 16 44 0.0 3.0 0.00 0.00 0.00 79 1041.0
20180221155610 16 15 1.0 5.0 0.00 0.00 0.00 78 1041.0
20180221155111 16 62 0.0 3.0 0.00 0.00 0.00 77 1041.1
20180221154610 16 0 1.0 5.0 0.00 0.00 0.00 77 1041.1
20180221154110 16 7 0.0 5.0 0.00 0.00 0.00 78 1041.0
20180221153610 15 4 0.0 3.0 0.00 0.00 0.00 79 1041.1
20180221153110 15 355 1.0 5.0 0.00 0.00 0.00 79 1040.8
20180221152610 15 16 0.0 3.0 0.00 0.00 0.00 79 1040.7
20180221152110 14 22 1.0 5.0 0.00 0.00 0.00 78 1040.6
20180221151610 14 30 0.0 3.0 0.00 0.00 0.00 78 1040.6
20180221151111 14 39 1.0 3.0 0.00 0.00 0.00 79 1040.5
20180221150610 14 19 2.0 6.0 0.00 0.00 0.00 79 1040.4
20180221150110 14 34 0.0 7.0 0.00 0.00 0.00 79 1040.4
20180221145610 14 5 0.0 7.0 0.00 0.00 0.00 79 1040.3
20180221145110 13 14 2.0 7.0 0.00 0.00 0.00 79 1040.3
20180221144610 13 357 1.0 10.0 0.00 0.00 0.00 79 1040.2